Theta_e
325 323 319 323 322 320 321 322 320 319 321 321 320 320 319 318 318 320 319 322 322 323 321 322 320 320 320 322 322 321 320 319 320 321 321 322 322 320 316 318 321 325 327 330 331 331 332 332 332 333 333 334 333 334 334 333 334 334 334 334 333 332 332 332 331 331 331 331 331 330 329 329 328 327 326 326 326 327 326 325 325 325 326 326 325
326 323 324 323 320 320 320 321 321 320 320 322 320 319 321 318 320 323 323 323 322 322 320 322 323 321 320 321 323 322 321 320 321 321 320 320 321 321 315 316 318 322 325 326 330 331 331 331 332 332 333 334 333 333 333 333 333 333 334 333 334 334 334 334 334 332 331 330 331 331 331 331 330 329 329 329 328 327 327 328 328 327 326 326 326
326 324 324 323 322 322 322 320 321 320 320 321 319 320 320 322 324 325 325 324 324 322 320 321 324 324 324 322 323 322 321 320 320 320 319 320 320 320 320 315 316 318 321 324 326 327 329 330 331 332 332 333 333 333 333 333 333 333 333 333 333 334 334 334 332 331 331 332 330 330 331 331 330 330 330 330 329 328 328 328 328 327 327 326 326
325 324 324 323 323 323 322 321 323 322 320 322 321 319 321 322 321 321 322 321 322 322 320 320 323 323 323 322 321 319 320 320 320 320 319 320 320 320 320 319 315 316 317 320 323 324 326 327 328 329 331 332 333 334 333 332 332 332 331 332 333 333 333 333 332 332 332 331 332 331 330 332 331 329 330 330 330 329 329 328 328 328 328 327 326
324 324 322 323 322 322 322 322 323 322 321 321 321 320 320 320 321 320 320 319 319 321 322 321 321 321 320 321 319 320 320 319 319 319 319 319 319 319 319 319 319 314 314 316 318 321 323 324 325 327 329 330 331 331 332 331 332 331 331 332 333 333 333 332 331 331 332 332 332 331 330 331 332 330 330 330 329 331 330 328 329 327 327 328 327
324 323 322 322 321 322 322 322 322 321 321 320 320 320 320 319 320 319 319 320 322 323 322 322 322 320 319 320 319 320 319 318 318 318 318 318 319 319 318 319 319 319 319 315 315 316 319 322 323 325 325 326 327 329 330 330 330 331 331 331 331 332 332 332 331 331 331 331 331 331 330 330 330 330 330 330 331 330 330 331 331 330 329 329 328
324 324 321 321 321 320 320 322 322 320 320 320 321 320 321 321 321 322 323 322 322 321 320 321 321 320 320 320 319 319 318 317 318 319 318 318 318 318 318 318 318 318 318 318 312 313 315 318 321 322 323 324 325 326 328 329 330 330 330 329 330 331 331 330 330 330 330 331 330 330 329 330 329 329 330 329 330 330 329 329 328 329 330 329 328
323 323 322 321 321 321 322 322 322 320 321 321 321 321 321 321 320 321 321 322 320 320 321 321 320 320 320 319 318 318 319 319 320 319 318 317 317 317 317 317 317 317 313 317 317 315 312 314 317 318 318 321 322 324 326 328 329 328 328 328 329 329 329 329 329 329 329 329 329 329 329 329 329 329 329 328 328 328 328 328 329 329 330 329 329
323 322 323 322 323 323 323 323 323 323 323 322 322 323 323 322 321 320 321 321 319 321 322 321 320 319 318 318 319 319 320 320 319 318 317 317 317 316 316 316 316 310 316 315 316 316 312 311 312 313 313 315 319 321 323 325 326 326 325 326 327 328 328 328 328 327 327 327 327 328 328 328 328 327 327 327 327 327 328 329 329 329 329 330 329
324 323 324 324 325 326 327 325 324 324 324 324 325 324 323 323 323 322 320 320 320 321 320 320 318 318 318 318 319 320 320 319 318 313 316 316 316 316 315 314 315 315 314 315 315 314 315 313 311 311 310 312 316 319 321 322 323 324 325 326 326 327 327 326 326 326 326 326 326 326 327 327 327 326 326 327 326 327 328 328 328 329 328 329 328
325 324 324 325 325 327 328 326 325 326 326 325 324 323 322 322 322 323 320 320 321 320 319 319 318 318 317 318 319 319 319 317 315 316 316 316 314 313 314 314 314 315 314 314 314 314 313 314 314 314 314 310 313 315 317 319 318 321 323 324 325 326 325 325 325 325 324 325 325 326 326 326 325 325 325 326 326 326 326 327 327 327 328 328 329
326 326 326 326 326 326 328 328 327 327 326 325 325 323 323 320 319 319 319 319 318 319 318 317 317 316 316 317 318 317 318 316 316 316 315 315 314 313 314 314 315 315 315 313 313 313 313 313 311 313 313 311 310 310 312 313 313 316 320 323 323 323 322 321 321 322 322 322 322 323 323 322 322 323 322 324 324 325 326 326 326 326 326 326 327
327 327 326 324 326 327 328 327 326 325 323 324 327 326 323 321 318 316 319 319 321 318 315 314 316 319 316 316 319 319 317 315 315 316 317 315 314 314 313 314 316 315 314 312 313 313 313 313 313 312 312 312 311 309 310 310 310 315 318 320 321 322 320 320 320 318 318 318 319 320 320 320 320 320 321 322 323 324 324 324 325 325 325 325 324
327 327 327 327 326 326 326 328 327 326 325 324 322 320 322 318 317 318 317 319 319 317 316 317 315 314 314 315 316 319 318 315 313 317 318 316 314 314 313 314 314 314 312 311 312 312 312 312 312 312 312 312 311 311 311 310 311 311 317 317 318 321 319 319 318 317 316 318 319 319 319 318 319 320 321 320 320 320 322 324 324 323 322 321 321
327 327 328 328 328 328 327 328 326 325 324 323 323 322 322 321 319 320 319 315 317 314 316 318 317 312 315 314 311 311 314 316 312 316 316 316 314 315 312 313 313 312 310 311 311 311 311 311 311 311 311 311 311 310 310 307 307 306 311 311 312 318 319 317 317 318 317 316 315 313 314 315 315 316 316 317 318 320 321 322 321 322 320 322 324
328 327 327 328 328 328 329 328 327 326 327 326 323 323 322 321 320 318 318 318 314 314 314 315 316 314 312 311 310 308 307 310 309 314 312 313 312 313 312 311 311 312 311 309 309 309 310 310 310 310 310 310 310 309 310 309 307 305 305 304 306 314 316 317 316 314 313 313 315 315 316 315 316 316 316 316 318 319 319 320 320 321 322 322 319
330 330 329 328 328 329 327 327 328 324 324 324 324 324 323 323 321 319 316 318 317 316 314 314 314 315 316 311 311 307 306 309 309 311 313 313 312 311 311 310 310 309 309 308 309 308 308 309 309 309 309 309 309 308 309 309 309 307 307 301 305 310 310 311 312 313 313 314 313 312 312 312 312 313 315 316 317 318 318 318 318 319 319 319 319
330 330 328 328 329 329 329 328 326 323 322 324 324 323 322 321 320 320 317 318 319 316 315 312 312 313 315 317 315 311 309 308 308 305 312 311 312 312 309 310 310 308 306 306 306 306 307 307 308 307 307 307 307 308 308 308 306 307 306 306 306 305 304 305 309 311 312 312 312 312 313 313 313 314 315 315 315 316 316 316 317 316 317 317 318
329 329 329 329 329 328 328 326 325 325 323 323 322 322 322 322 320 319 320 318 318 316 315 313 312 313 313 313 312 311 313 308 305 306 301 307 308 306 307 310 308 305 304 304 305 305 306 306 306 305 305 306 306 307 307 307 305 304 304 302 304 303 304 304 304 307 309 310 311 311 311 313 312 313 313 313 313 313 314 314 315 314 315 315 316
329 328 329 328 327 327 327 326 324 324 322 322 322 320 318 316 317 319 317 318 318 317 315 313 313 310 312 313 311 310 310 311 310 305 302 299 300 304 307 306 302 302 303 303 303 304 304 304 303 303 304 306 306 306 306 305 304 302 299 301 302 303 304 304 303 303 305 306 308 309 310 311 312 311 311 312 313 312 313 313 314 314 313 314 315
326 327 327 327 324 325 325 325 324 322 318 320 319 319 319 317 315 316 317 316 316 315 314 312 310 310 309 309 309 308 306 306 306 305 301 298 298 299 299 300 299 299 301 302 302 304 302 301 301 302 304 305 305 306 304 303 300 298 297 298 300 303 304 303 302 301 301 301 304 305 309 310 310 311 311 312 312 312 312 312 313 313 313 313 313
324 325 325 325 324 323 323 323 322 319 316 318 318 317 316 317 317 316 316 314 314 313 312 311 310 311 311 309 307 305 303 304 304 301 300 301 297 296 297 294 292 294 297 300 302 299 299 300 301 303 304 304 304 304 301 298 296 296 294 296 298 300 301 300 301 301 300 300 301 302 305 307 308 309 310 311 311 311 311 311 312 312 312 312 312
320 320 321 322 322 320 322 321 320 316 316 316 315 316 316 315 314 314 313 312 311 311 310 310 310 309 308 308 306 305 302 300 299 299 298 295 294 293 293 293 292 292 297 300 296 297 298 300 301 302 303 303 303 300 297 296 293 293 293 294 295 296 297 298 299 299 300 300 301 301 302 302 303 304 306 308 309 310 310 311 310 311 311 311 311
317 318 316 317 318 319 319 319 317 317 316 316 316 315 313 312 312 312 310 310 309 308 308 308 307 306 305 306 305 304 302 301 300 299 298 296 294 292 292 292 292 294 296 295 296 297 299 299 300 301 301 302 299 297 295 294 293 292 292 293 294 295 297 298 299 298 298 299 299 299 300 300 300 301 302 305 307 308 309 309 309 309 310 310 310
312 315 315 316 315 315 315 314 314 315 314 314 313 313 312 311 309 308 308 307 307 308 307 305 305 304 302 302 302 301 299 299 299 297 297 295 294 291 292 292 290 291 293 293 294 297 296 297 300 300 300 298 296 294 293 292 292 291 292 292 292 293 293 294 296 297 297 297 297 298 298 298 299 300 302 302 304 306 307 307 307 308 308 308 308
313 315 315 314 315 315 314 312 311 310 309 308 307 307 309 308 307 306 304 303 304 304 302 301 300 300 299 298 297 297 297 297 297 296 294 293 292 291 290 290 291 289 291 291 294 291 294 299 299 298 299 294 294 294 292 291 291 291 290 290 291 291 292 293 294 296 296 296 296 296 296 296 298 299 299 302 303 303 304 305 306 306 306 306 307
315 315 311 312 312 310 309 308 307 306 305 304 303 304 304 304 303 301 299 298 299 299 298 297 296 296 296 296 295 295 294 295 295 294 295 293 292 291 290 287 288 289 288 290 290 291 290 293 295 296 294 293 292 291 290 290 290 290 289 290 290 290 290 292 294 296 295 295 294 295 295 296 296 298 298 298 300 300 302 303 304 304 304 304 304
313 310 309 309 308 306 306 306 305 304 303 302 301 301 301 301 299 299 296 296 295 294 294 293 293 293 293 293 292 290 290 291 292 293 293 293 292 292 291 290 287 285 287 286 288 289 290 289 294 293 292 291 291 290 289 289 290 289 288 289 289 289 289 291 293 294 293 293 294 294 295 295 296 296 297 297 297 297 298 299 299 299 299 298 299
308 308 307 306 305 305 304 303 303 301 300 300 299 298 299 298 297 296 294 293 293 292 291 290 290 291 291 291 290 289 288 289 289 290 291 291 292 292 293 290 289 287 285 286 285 286 290 291 288 291 291 291 289 289 289 289 289 288 288 288 288 288 288 290 291 292 292 293 293 293 294 295 295 296 296 296 296 296 297 297 297 297 298 298 299
306 305 305 303 302 300 302 300 300 298 296 296 295 295 295 294 294 293 291 290 288 287 288 288 289 289 288 288 289 288 288 289 288 287 288 289 289 290 289 290 290 287 287 285 284 287 287 290 290 288 289 288 288 288 288 288 288 288 288 288 288 287 288 289 289 290 290 292 292 292 294 295 295 295 295 295 295 296 297 297 297 297 298 299 300
303 303 303 301 300 299 299 296 295 294 294 293 292 292 292 290 289 288 287 288 287 287 286 286 286 288 288 287 288 288 288 288 288 288 288 288 287 288 289 289 288 288 286 286 283 286 287 285 287 288 287 287 287 287 287 287 287 287 287 287 287 287 287 287 287 288 289 290 292 292 294 295 295 295 294 294 295 295 296 296 296 296 297 298 298
303 302 300 299 298 296 294 294 292 291 291 290 290 289 289 288 288 288 287 287 287 286 286 286 286 287 287 287 287 287 287 287 287 287 287 287 287 287 287 287 287 287 286 285 283 283 287 285 286 287 287 285 286 285 286 286 287 286 287 286 286 286 286 286 286 287 288 289 291 291 293 294 294 294 294 294 294 295 295 295 296 296 296 296 297
301 300 298 297 296 295 294 293 292 291 290 288 288 288 288 287 287 287 287 287 287 287 287 286 286 287 287 286 286 286 286 286 286 286 286 286 286 286 286 286 285 285 285 283 282 282 285 286 285 285 285 285 284 286 284 285 285 286 286 286 286 285 285 285 285 286 287 288 289 290 291 292 292 292 292 292 292 293 294 295 295 295 295 295 295
300 299 298 295 294 294 294 293 292 291 290 288 288 288 286 286 286 286 287 287 286 286 287 286 286 286 286 285 285 285 286 285 285 285 285 285 285 284 285 284 284 284 285 283 282 281 281 284 283 285 284 285 283 285 284 283 284 285 284 285 285 285 285 285 285 285 286 287 289 290 291 291 291 291 291 291 292 293 295 295 293 293 294 294 294
295 297 295 294 294 293 292 291 290 289 289 288 287 287 287 286 286 286 287 286 286 286 286 285 285 285 285 284 284 285 285 284 284 284 284 284 284 284 283 284 283 283 284 283 282 281 281 281 283 282 283 283 283 283 284 284 284 284 283 283 284 284 285 285 285 285 286 287 289 289 290 290 290 290 291 291 291 291 291 292 292 292 292 293 293
293 292 293 292 292 292 291 289 289 288 288 287 287 287 287 287 286 286 286 286 286 285 285 285 285 284 284 283 283 284 284 283 282 283 283 284 283 283 283 283 283 282 283 283 283 281 280 280 282 282 282 282 282 284 284 284 284 283 283 283 284 284 284 284 284 284 285 288 288 288 288 289 289 289 289 290 290 290 291 291 291 291 291 292 292
292 292 291 291 291 291 290 289 288 287 287 287 287 286 286 286 286 286 285 285 285 285 285 284 284 284 283 283 283 283 283 282 282 282 282 282 282 282 282 282 282 282 282 282 282 282 280 279 280 282 282 282 283 283 284 282 282 282 283 282 283 283 283 284 284 284 285 286 286 286 286 287 287 288 289 289 289 290 290 290 290 290 290 291 291
291 291 290 290 290 289 288 288 287 287 287 286 286 286 285 285 285 285 285 285 284 284 284 284 284 283 283 282 282 282 282 282 281 281 282 281 282 281 281 281 281 281 281 281 282 281 280 280 280 280 282 281 281 282 283 282 281 280 281 282 282 282 282 282 282 284 284 284 284 283 284 285 286 286 287 288 289 289 289 290 290 290 289 289 290
291 290 289 288 287 287 287 286 286 286 286 286 285 285 285 285 285 284 284 284 283 283 283 283 283 283 282 282 282 282 282 282 282 281 281 281 281 281 281 281 281 281 281 281 281 280 280 279 280 280 280 281 281 280 282 282 282 281 279 279 279 281 281 281 281 282 284 283 284 285 284 284 285 284 286 287 288 288 289 289 289 289 288 289 290
289 288 287 287 286 286 285 285 285 285 285 285 285 285 285 284 284 284 283 283 282 282 282 282 282 282 282 282 282 282 282 282 282 282 282 281 281 280 281 281 281 281 280 280 280 280 279 279 279 279 280 279 280 281 282 281 279 279 280 279 277 278 279 280 281 280 281 281 281 281 282 283 283 284 285 286 286 287 287 287 287 287 287 289 290
287 287 286 285 284 284 285 285 285 285 285 285 285 284 284 284 284 283 283 282 282 281 281 281 281 281 281 281 282 282 282 282 282 282 282 282 281 280 281 281 281 281 280 280 280 279 279 279 278 279 279 279 279 279 278 278 277 277 279 279 278 279 279 279 280 281 281 280 280 280 280 282 281 282 283 283 284 285 285 286 287 287 288 290 290
285 285 284 284 284 284 284 284 284 285 284 285 284 285 285 283 283 283 282 282 281 281 280 280 280 280 280 281 281 281 281 281 281 281 282 282 282 282 282 282 282 281 280 279 279 279 278 278 278 278 277 277 278 278 277 278 279 279 278 278 277 278 279 278 278 279 281 280 278 277 279 282 281 281 282 282 284 285 285 285 286 287 288 290 290
284 284 284 284 284 284 284 284 284 285 285 285 286 287 286 285 283 282 282 281 281 281 280 280 279 279 280 280 280 280 280 279 280 281 281 282 282 282 283 283 283 281 280 279 279 279 278 277 278 277 277 276 277 278 278 278 279 278 278 278 278 277 276 274 273 276 281 279 277 277 278 281 281 280 281 282 283 284 285 285 288 288 288 289 289
283 283 283 283 283 284 284 285 285 285 285 286 288 287 286 285 283 282 282 281 281 280 280 280 279 279 279 279 279 279 279 279 279 279 279 280 281 282 283 282 282 281 282 280 279 278 278 277 276 277 276 276 277 277 278 278 278 278 278 278 277 275 274 274 274 274 277 279 277 276 277 280 281 280 280 282 283 284 285 286 287 288 288 289 289
283 282 282 282 283 283 284 285 285 286 286 288 287 287 286 285 284 282 281 281 280 280 280 279 279 279 279 278 278 278 278 279 279 279 279 280 281 282 282 281 280 280 281 281 281 280 279 277 276 276 277 277 276 277 279 278 279 277 276 276 276 276 275 274 274 275 276 279 278 276 275 278 280 280 280 282 283 284 283 284 286 288 288 288 288
282 281 281 282 282 283 284 285 285 286 286 287 287 287 286 285 284 282 281 280 280 280 279 279 279 278 278 278 278 278 278 278 278 279 280 281 281 281 280 280 279 279 280 280 279 279 279 278 277 276 278 279 277 279 280 280 277 275 275 275 276 275 274 274 275 276 278 280 277 276 275 277 280 279 279 281 282 281 282 284 286 287 287 288 288
281 281 281 281 281 282 283 284 285 285 285 287 287 286 286 285 284 282 280 280 280 279 279 279 278 278 278 278 278 277 278 278 279 281 282 282 281 279 278 278 278 279 278 278 278 278 279 279 279 279 279 280 280 279 279 278 278 277 277 276 276 275 275 277 277 278 278 280 279 277 273 277 280 279 279 280 280 280 281 283 285 286 286 287 288
280 280 280 281 281 281 282 283 284 284 285 286 286 286 285 285 283 280 280 279 279 279 278 278 278 278 278 278 277 277 277 278 279 282 283 282 280 278 277 277 277 277 277 278 279 280 280 280 280 280 279 279 280 279 279 278 278 278 278 277 276 276 274 273 273 275 275 278 279 277 275 276 279 277 277 279 279 278 280 281 284 285 285 286 286
279 279 279 279 280 281 281 282 283 284 285 285 286 285 285 284 281 279 279 279 279 278 278 278 278 278 278 278 278 277 278 278 280 283 283 281 278 277 277 276 275 274 275 278 279 280 279 279 278 278 279 279 279 279 279 279 279 278 276 274 273 274 272 271 272 273 274 277 278 279 277 275 276 276 275 277 277 277 278 280 281 283 284 284 285
278 278 278 279 279 280 281 281 282 283 283 284 285 285 284 283 280 278 279 279 278 278 277 278 278 278 278 278 278 278 278 279 281 282 282 280 278 277 276 274 273 274 276 278 277 276 276 275 275 275 276 276 277 277 278 278 278 278 274 272 273 273 272 272 271 272 274 276 278 280 275 274 275 275 274 275 276 277 278 279 280 280 281 281 282
278 278 278 278 277 278 279 280 280 282 282 283 285 284 283 282 280 279 279 278 277 277 277 277 277 277 277 278 278 279 279 281 282 281 281 280 278 277 275 274 273 274 276 276 274 272 271 270 270 271 272 273 274 274 275 276 277 277 276 274 274 273 272 272 272 272 271 274 277 279 272 272 272 273 273 271 271 274 278 277 278 278 278 277 277
Wind_Speed
3 2 2 2 2 2 2 2 1 1 1 1 1 1 1 1 1 1 1 1 1 2 2 2 1 1 2 4 3 3 2 2 2 3 3 3 4 6 9 9 10 11 12 13 14 15 16 16 17 17 18 19 19 18 19 19 19 19 19 19 19 20 19 18 19 20 18 17 19 18 19 21 20 19 20 17 19 20 19 18 19 19 19 20 21
2 1 2 3 2 2 2 3 3 2 2 2 2 2 2 1 2 2 2 2 2 1 1 3 3 2 2 3 3 2 2 2 3 3 3 3 4 5 9 8 9 11 12 13 15 15 16 16 17 17 18 18 19 20 19 20 20 20 20 21 21 21 20 20 17 15 19 21 18 15 17 20 22 22 19 21 23 22 20 22 22 19 21 21 21
2 2 2 2 2 2 3 2 3 3 3 3 2 2 2 3 2 2 2 2 2 1 1 3 4 4 2 2 3 3 2 2 3 3 3 3 4 4 6 8 8 10 11 13 14 14 15 16 16 17 18 18 19 20 20 21 21 20 20 21 21 22 22 20 20 19 18 17 20 20 19 19 22 24 21 20 23 24 22 24 24 22 22 22 23
3 3 3 3 3 2 1 2 3 1 3 3 2 3 3 3 3 2 2 2 3 2 2 2 3 4 4 4 3 3 3 3 3 3 3 3 4 4 4 5 7 7 9 11 13 13 14 15 15 16 17 17 18 19 20 20 21 20 20 21 22 21 21 22 22 22 21 19 16 18 19 16 20 22 21 21 23 24 25 26 25 25 23 24 25
4 4 4 3 3 2 2 3 3 2 2 3 2 2 2 2 2 2 2 2 2 3 1 2 3 4 3 3 3 3 3 3 3 4 4 4 4 4 4 4 5 6 7 7 10 11 12 13 14 15 16 16 17 18 19 18 18 19 20 21 21 21 22 22 22 22 23 22 22 20 19 18 17 18 20 20 20 21 23 24 26 24 27 28 26
4 4 3 3 3 3 3 3 3 3 2 2 2 2 2 2 2 2 3 3 4 2 1 3 3 2 2 3 3 3 3 4 4 4 4 4 4 4 4 4 4 4 5 7 6 8 11 12 13 14 15 15 16 17 17 18 18 18 19 20 21 21 22 22 23 24 24 24 24 24 22 21 21 21 22 22 20 19 20 21 23 25 27 27 26
4 4 4 3 3 3 4 4 3 3 2 3 3 2 3 4 2 3 2 2 2 2 2 3 3 4 4 3 3 3 3 4 4 4 4 4 4 4 4 5 4 4 4 5 6 6 8 11 12 13 14 15 15 16 16 17 18 20 21 22 21 22 22 23 24 25 25 25 24 23 23 22 23 23 23 23 24 23 23 23 23 23 24 24 26
5 4 4 4 4 4 4 3 3 3 3 2 2 3 3 3 3 2 2 3 2 3 2 3 2 5 4 3 3 4 4 4 4 4 3 4 4 4 4 4 4 4 5 4 5 7 8 9 11 12 13 14 15 15 16 17 18 20 21 21 21 21 22 22 23 24 25 24 24 24 24 23 23 23 23 23 23 24 24 24 23 22 22 24 24
6 5 4 4 4 3 3 3 3 3 3 4 4 3 4 4 3 4 4 4 3 5 4 1 3 4 3 4 5 4 4 4 4 3 3 3 4 4 4 4 4 5 3 4 4 5 7 8 9 10 10 12 13 14 15 16 18 19 20 21 21 20 21 21 22 23 23 23 23 24 24 24 24 25 25 25 25 26 26 26 25 26 26 23 22
6 6 5 5 5 6 5 4 3 3 3 3 5 3 3 3 4 2 3 3 3 4 4 3 3 3 3 4 6 4 4 4 2 2 3 4 3 3 4 4 4 4 4 4 4 4 5 7 8 8 8 9 13 14 15 17 18 19 20 20 21 22 21 22 22 23 23 23 23 23 23 23 24 24 24 24 25 25 26 26 27 27 27 27 27
7 6 6 5 5 5 6 6 5 4 4 4 3 3 3 3 4 3 1 2 4 3 3 3 4 3 4 5 5 5 4 2 1 1 2 2 3 3 2 3 3 3 4 3 4 4 5 5 5 6 7 10 11 13 15 16 16 18 19 20 20 21 22 22 23 23 23 23 23 23 23 24 25 25 25 25 25 25 26 26 27 27 28 28 28
7 7 6 5 5 5 6 6 6 6 6 5 5 4 6 5 4 4 2 2 3 3 2 2 3 3 5 4 4 4 5 1 1 1 2 1 2 2 3 3 2 3 3 4 4 4 4 5 5 5 6 8 10 9 12 14 14 16 18 19 20 21 21 21 21 22 22 23 24 24 25 26 26 26 26 27 26 26 26 27 28 27 28 30 29
7 7 7 7 6 6 7 7 7 6 6 7 6 5 3 4 3 3 3 3 4 1 1 1 2 4 0 2 4 2 2 3 1 1 2 1 1 2 2 3 3 4 4 4 4 4 5 5 5 5 5 5 7 9 9 9 10 15 17 18 19 20 21 21 22 22 23 23 23 23 24 24 25 25 26 27 27 26 26 27 28 28 28 29 29
8 8 8 8 8 6 5 6 6 6 7 6 4 3 3 3 3 2 2 3 3 1 3 1 2 1 4 5 1 2 2 2 3 5 7 3 2 2 2 3 4 4 3 4 4 5 5 5 5 5 5 5 6 6 7 8 9 14 17 18 19 20 21 22 23 24 24 23 25 26 26 26 27 27 27 28 28 29 28 28 28 28 30 28 29
7 8 7 7 8 7 5 5 5 5 4 4 5 5 5 5 4 4 3 2 3 1 3 3 2 1 2 3 3 4 2 1 1 8 4 3 2 3 3 4 6 4 3 4 6 6 5 5 5 5 6 6 5 6 6 7 9 12 14 15 16 19 21 23 24 24 24 25 26 26 26 26 26 26 27 27 27 30 29 30 30 30 31 30 29
8 7 6 7 7 7 6 6 7 7 6 6 6 7 6 5 4 5 3 2 2 1 1 3 3 0 2 1 3 2 4 1 6 3 1 2 0 2 2 5 5 5 3 5 6 6 6 5 5 6 5 5 5 5 6 6 9 10 11 13 15 18 21 22 23 25 26 26 25 25 25 25 26 26 27 27 29 30 30 30 30 31 30 30 32
9 10 8 6 6 6 6 7 7 6 5 6 6 7 6 5 6 5 6 5 3 2 1 0 3 1 1 1 1 1 1 3 8 2 0 6 1 1 3 3 4 4 4 5 5 4 5 6 6 5 5 5 5 5 5 6 6 8 10 12 14 17 21 22 23 24 24 24 25 25 26 26 26 27 27 28 29 29 29 30 31 32 32 32 32
7 8 9 8 8 8 8 7 6 5 6 7 6 4 5 5 6 6 6 5 3 4 2 2 2 2 1 0 1 1 2 2 2 4 5 3 5 7 7 3 4 9 7 6 7 7 3 5 6 7 6 5 5 5 5 6 7 7 9 12 19 20 21 23 23 24 24 25 25 25 25 26 27 27 27 28 29 30 30 30 30 31 31 32 32
8 7 6 7 8 7 8 7 6 5 5 6 5 6 5 5 5 5 5 5 5 4 5 3 3 3 2 2 4 4 4 2 2 3 6 4 4 5 7 8 9 10 10 9 8 8 6 4 5 5 6 5 5 5 6 7 9 8 10 19 22 22 23 22 22 23 24 26 26 26 27 27 28 28 29 29 30 30 30 30 31 31 31 31 32
7 7 7 6 7 7 7 6 6 6 6 6 5 4 4 2 4 5 4 5 6 6 7 5 4 3 2 3 4 3 3 3 3 2 3 5 6 3 1 6 8 6 8 9 9 7 9 8 7 6 5 5 5 6 6 6 7 9 10 21 23 23 23 23 22 22 23 25 26 26 27 27 28 29 30 30 30 31 31 31 31 32 33 33 32
6 5 6 6 6 7 7 6 6 5 5 4 4 5 6 7 5 5 5 5 4 4 5 5 4 4 4 3 3 3 2 2 4 4 1 2 5 4 6 4 6 4 3 5 6 6 7 7 6 6 5 5 7 7 7 7 8 9 11 21 23 24 24 24 23 23 24 24 26 27 27 28 29 29 30 31 31 31 31 31 31 32 32 32 33
6 6 6 7 7 6 6 6 6 6 5 6 6 6 6 6 6 5 6 7 6 6 6 5 4 5 4 4 2 2 3 2 2 2 2 4 4 5 4 6 6 5 6 2 4 8 7 5 6 6 5 6 6 6 8 9 9 9 14 20 22 23 24 24 24 24 25 25 26 27 28 29 29 30 31 31 32 32 32 32 33 33 33 33 34
6 6 7 6 6 6 6 6 7 7 6 7 7 6 6 7 8 8 7 8 7 6 6 5 5 5 5 4 3 3 4 3 3 3 3 1 2 5 3 3 6 8 2 4 8 7 5 4 3 4 4 5 4 6 7 8 12 12 16 17 20 21 22 23 24 24 24 25 26 27 27 28 29 30 31 32 32 32 33 34 34 34 34 35 34
5 6 4 4 5 5 6 7 7 8 7 5 7 8 7 5 6 7 7 6 7 6 6 6 6 5 5 5 4 4 4 4 4 3 3 2 2 4 4 3 4 4 5 6 5 4 4 4 2 2 3 2 4 5 8 9 9 13 13 15 18 20 22 23 23 23 23 24 25 25 26 27 28 29 30 30 31 32 32 32 33 34 35 36 36
5 6 6 6 6 6 6 6 6 6 7 6 5 6 8 6 6 7 7 6 6 6 5 5 5 5 5 4 5 5 5 4 4 3 2 1 2 2 2 2 4 4 2 2 2 4 2 3 3 3 2 4 5 7 7 7 8 11 13 11 15 18 21 22 23 24 24 24 25 25 26 27 28 29 30 30 31 31 32 32 32 33 34 35 36
9 8 8 7 6 7 8 6 6 6 7 7 6 5 6 6 6 6 6 5 6 7 7 7 6 7 6 6 5 5 5 4 3 3 3 2 1 1 3 3 4 4 2 2 1 2 2 2 3 2 2 4 3 5 9 9 9 12 15 13 14 19 21 22 23 23 24 24 25 26 26 27 28 28 28 29 30 30 31 32 32 33 33 34 35
10 7 8 8 7 7 8 8 7 7 6 7 6 5 5 5 6 6 6 5 7 7 7 8 7 8 8 7 6 5 4 3 4 3 3 2 2 1 1 5 2 3 1 2 2 2 4 3 2 1 2 4 7 10 10 11 11 13 14 12 11 15 17 20 21 23 23 24 25 25 26 26 28 28 28 29 30 30 31 32 32 33 33 33 33
7 8 8 8 8 8 7 7 7 7 7 7 7 6 7 7 6 7 7 5 8 9 8 9 8 9 7 7 6 5 4 4 4 4 3 3 2 2 1 2 3 6 2 1 1 3 1 1 2 2 2 5 7 7 10 10 8 12 12 10 10 10 15 19 22 23 24 25 26 26 26 27 28 29 28 29 31 32 31 31 32 32 32 33 33
8 8 9 8 7 8 8 7 7 8 8 7 7 7 7 7 7 8 8 7 8 8 7 8 7 7 6 6 4 4 4 4 4 4 4 3 2 2 2 1 2 0 4 3 1 2 2 1 2 1 2 7 8 7 8 7 8 11 10 10 10 10 13 21 22 22 24 26 27 27 27 29 29 30 30 31 31 31 32 32 32 32 33 33 34
9 9 9 9 8 7 8 7 7 9 9 8 8 8 8 7 8 8 8 8 8 6 6 7 7 6 5 5 4 4 4 3 4 4 4 4 3 2 2 2 2 2 1 3 5 2 4 1 1 4 4 8 8 9 7 8 10 12 11 10 10 10 17 19 19 22 24 27 28 28 29 29 30 31 32 32 32 32 32 32 33 33 34 34 36
8 9 9 10 9 7 8 7 8 10 8 8 9 9 10 9 8 8 6 5 6 6 5 5 5 6 6 6 4 5 3 4 3 3 3 3 3 3 3 2 2 2 2 2 4 2 1 6 2 3 9 9 9 9 7 8 10 12 11 11 11 15 17 13 16 20 25 27 29 29 29 29 29 31 33 33 32 33 33 33 34 34 35 35 35
9 10 9 10 10 10 7 8 9 8 9 8 9 9 8 7 6 6 5 7 8 7 5 4 4 6 8 8 5 5 4 4 4 3 3 2 2 2 2 3 2 2 2 2 4 9 2 6 8 5 8 12 12 12 11 8 8 12 11 10 12 15 12 11 14 19 23 27 28 28 29 29 30 32 33 32 33 33 34 34 35 35 36 36 36
10 10 10 9 9 11 10 9 11 10 10 9 8 8 7 7 5 6 6 8 9 6 7 7 5 7 7 7 6 4 3 5 4 3 3 3 3 3 3 2 3 2 1 1 4 10 6 4 5 7 9 11 11 9 14 13 11 10 13 11 12 11 12 11 11 15 21 27 27 27 28 29 30 31 31 31 31 32 34 35 35 35 35 36 36
11 11 11 10 8 10 11 9 10 9 9 8 8 8 8 8 8 6 7 9 9 8 7 7 6 5 6 7 6 5 3 5 4 4 3 3 3 4 3 3 3 3 2 1 4 4 11 5 4 5 6 8 12 9 11 16 16 15 15 13 10 10 10 11 11 11 19 26 28 29 29 30 29 30 30 29 31 33 35 36 36 35 35 36 36
5 9 10 11 11 11 10 10 10 9 9 9 8 9 8 9 9 7 7 9 9 9 8 7 7 6 6 6 5 4 3 5 4 3 3 3 3 4 4 3 3 3 2 3 3 4 8 10 4 6 8 9 9 13 13 12 13 13 15 15 14 12 9 10 11 10 17 24 28 31 31 29 28 28 30 31 32 34 34 34 34 34 35 36 36
9 7 7 9 10 11 11 10 10 10 9 9 8 8 9 9 10 9 8 7 8 8 8 8 7 6 6 6 5 5 5 5 4 3 3 3 4 4 4 3 3 3 3 3 3 4 6 10 8 6 7 10 9 10 10 10 11 14 12 14 14 13 14 12 14 13 14 23 27 28 28 27 25 25 29 31 32 33 33 33 33 34 34 34 35
8 10 8 8 10 10 10 11 10 10 10 11 10 9 7 7 8 9 8 7 7 7 7 7 6 6 5 5 5 5 5 5 4 3 3 5 4 3 4 3 3 3 3 4 4 5 7 9 12 7 6 8 8 8 8 14 16 16 16 14 13 14 14 12 12 14 23 28 25 23 22 24 25 28 30 28 30 32 32 32 32 32 33 33 34
8 8 10 8 10 10 10 10 9 9 10 10 10 10 8 8 8 7 7 7 7 7 7 6 6 5 6 5 5 4 4 4 4 4 4 4 4 4 4 4 3 3 4 3 4 5 6 8 9 13 9 10 11 8 6 9 13 16 17 18 17 13 14 14 13 10 9 12 15 14 17 20 25 29 30 29 30 31 31 30 30 31 32 33 33
11 11 9 9 7 10 10 9 10 11 10 9 9 8 8 7 8 9 8 7 7 6 6 6 6 5 5 5 5 4 4 4 5 4 4 4 4 4 4 4 4 4 4 4 5 6 6 8 9 8 10 9 9 13 12 11 11 9 12 17 20 18 17 17 19 17 14 13 18 22 19 19 21 20 26 28 27 29 30 30 30 30 30 30 32
9 10 12 11 9 9 9 9 8 9 9 8 8 7 7 7 8 8 8 8 8 8 7 6 6 5 5 5 4 4 4 4 4 4 4 4 3 4 4 4 4 4 4 5 6 7 7 8 8 10 9 10 11 10 10 9 10 10 10 13 18 19 22 21 18 18 17 17 18 18 15 19 18 18 21 22 24 27 29 26 27 28 29 30 33
7 9 9 11 12 10 8 8 8 8 9 8 7 8 8 7 7 9 8 8 9 9 8 7 6 5 5 4 4 5 5 6 7 6 6 5 3 4 4 4 4 5 5 5 5 6 7 8 10 10 10 10 9 12 13 12 13 14 15 14 16 16 16 18 16 12 13 19 18 18 14 14 19 18 17 17 18 23 20 23 22 25 28 34 37
9 9 10 9 11 12 11 8 8 7 7 6 8 10 9 9 8 7 7 7 8 8 9 8 6 5 5 5 5 7 7 6 7 7 7 7 6 4 3 3 4 4 5 5 5 5 6 7 8 10 12 11 11 10 13 14 14 14 16 16 18 17 17 16 16 10 13 15 20 21 16 13 16 18 18 19 18 18 17 16 16 25 32 36 35
10 10 10 11 10 9 10 10 8 6 6 6 13 13 14 13 9 8 8 7 7 7 7 7 7 6 5 5 5 5 5 4 5 6 5 5 5 5 4 4 5 4 4 5 5 5 6 6 7 8 10 13 11 11 12 14 14 15 14 14 14 15 15 16 18 17 11 18 20 21 21 15 15 18 17 16 19 19 17 18 30 33 34 34 36
9 9 10 10 10 9 8 8 7 7 7 11 15 14 14 14 10 7 7 7 7 7 7 7 6 6 6 5 4 3 3 3 3 2 0 1 0 3 4 5 5 6 5 4 5 5 6 6 7 7 9 10 12 12 12 14 15 16 14 14 14 14 16 16 14 14 15 18 20 20 20 15 17 17 18 17 16 17 17 26 32 33 33 34 36
9 10 10 10 8 7 9 9 8 7 8 12 14 15 14 14 14 10 6 7 8 7 7 6 6 6 5 5 4 3 3 4 2 2 2 1 3 1 5 4 4 5 5 6 6 5 5 7 7 8 8 10 13 12 13 15 14 15 15 14 14 15 15 15 14 15 17 16 16 17 19 18 18 18 18 19 16 16 18 22 30 30 32 34 36
9 8 7 10 9 9 9 9 8 8 9 12 14 15 14 15 14 10 6 8 7 7 7 6 5 5 5 5 4 4 3 2 2 2 2 2 1 3 3 3 3 4 5 6 7 8 8 6 7 9 10 10 11 13 14 13 13 13 13 14 15 17 17 17 20 18 14 12 13 16 17 16 16 18 18 17 16 15 14 21 27 29 32 33 32
9 10 10 10 8 9 9 8 8 8 7 14 15 15 15 15 15 10 7 7 7 6 6 6 5 5 5 4 4 4 3 1 2 1 1 2 2 2 3 3 3 4 4 5 5 5 5 6 8 10 11 10 11 12 12 11 12 11 11 13 14 15 17 19 17 13 12 11 14 14 15 16 16 18 16 17 16 15 12 16 23 28 31 30 29
5 6 5 6 9 9 8 9 10 8 9 15 15 15 16 15 15 7 7 7 7 7 6 5 5 4 4 4 3 3 2 1 4 3 3 2 2 2 3 3 3 3 4 5 6 6 6 7 8 10 10 11 14 12 12 11 10 10 11 11 11 11 13 15 16 14 12 10 12 13 12 15 15 17 17 15 14 14 13 11 19 27 28 28 27
8 8 8 7 7 9 10 9 10 9 10 13 15 16 16 16 11 5 6 6 6 7 6 6 5 4 4 4 3 2 2 1 5 3 4 4 2 2 2 3 2 2 4 4 3 7 11 13 14 15 16 16 15 16 15 15 12 10 9 11 11 12 13 15 16 15 14 12 12 12 13 14 14 16 19 14 14 15 13 12 13 20 24 26 27
9 8 8 8 6 7 10 10 10 11 9 13 16 15 16 15 10 7 6 7 7 6 6 5 4 4 4 5 3 2 2 3 3 4 4 3 2 2 2 3 3 4 3 3 4 5 9 11 13 13 14 14 14 14 13 13 13 11 8 9 11 12 13 12 15 15 16 12 8 11 11 10 13 12 15 15 11 7 9 10 13 13 18 19 24
8 7 7 8 7 5 5 8 10 10 10 12 16 15 16 15 10 6 7 7 8 6 6 6 4 3 4 4 4 4 3 2 2 3 3 2 1 1 1 2 3 3 4 6 6 6 6 7 7 7 8 9 8 8 8 12 12 10 9 9 10 10 12 13 13 14 13 10 11 13 10 10 12 12 12 14 13 7 3 12 12 10 11 11 13
Wind_Direction
177 180 168 198 198 209 213 225 217 207 201 235 231 238 255 257 242 240 237 286 302 312 324 309 308 289 301 299 295 289 287 289 288 299 297 299 301 299 301 300 301 303 303 305 307 309 310 311 310 310 311 313 317 316 315 316 316 316 315 313 311 305 307 305 302 301 293 289 280 282 283 281 271 266 270 264 253 271 268 253 254 266 264 259 263
181 155 178 206 211 207 220 228 230 222 214 237 235 238 251 256 249 232 267 290 297 288 301 303 285 250 231 260 262 269 284 293 303 301 301 293 289 290 293 296 304 306 308 307 307 309 311 312 312 313 313 313 315 316 318 318 320 320 319 317 317 316 313 307 299 294 296 293 289 281 280 287 282 269 273 276 278 274 265 264 265 254 252 263 264
180 171 200 202 205 210 225 227 242 227 223 234 229 238 247 260 274 294 300 301 287 279 256 281 285 278 252 262 313 330 312 295 286 289 290 292 291 291 297 301 302 304 305 307 309 311 314 316 316 316 316 316 315 316 318 319 321 321 320 320 320 321 320 315 315 312 303 298 296 293 290 280 279 275 274 283 281 273 266 268 269 269 257 256 253
182 178 197 196 203 212 214 223 240 217 219 230 230 230 243 255 265 267 259 258 270 263 234 247 281 295 322 320 335 314 304 301 298 297 292 292 290 294 302 307 304 296 300 303 308 312 314 316 316 317 317 318 319 320 321 323 324 324 325 325 324 324 324 325 328 327 323 317 305 297 296 289 286 283 279 276 278 278 276 274 266 266 266 260 261
193 187 188 199 195 197 216 228 236 223 212 219 230 235 237 243 248 236 254 248 264 265 244 254 276 284 310 308 313 298 295 299 297 297 306 303 301 305 306 312 305 296 285 290 304 310 314 316 318 319 321 323 323 322 324 326 327 328 327 326 325 324 325 329 331 332 330 328 324 317 317 308 297 294 292 292 289 281 280 279 279 280 275 272 271
182 184 182 185 195 200 212 237 225 216 211 195 220 210 243 250 243 220 228 227 242 258 308 292 270 280 280 283 269 287 307 296 294 304 310 301 311 319 320 313 313 318 319 308 301 309 316 321 322 323 325 324 323 323 323 325 329 332 330 329 328 327 327 327 328 330 331 330 329 328 325 323 317 313 310 306 297 285 273 269 271 273 271 270 269
188 179 183 183 184 200 209 223 194 187 193 198 211 212 219 234 226 247 270 264 279 288 266 266 295 299 286 274 296 321 281 281 294 296 308 313 317 318 317 316 321 317 317 320 322 322 322 322 326 328 329 328 327 326 325 327 330 333 335 334 332 330 328 329 329 329 331 331 329 326 324 321 320 318 317 315 312 308 302 292 282 272 271 272 273
186 185 184 190 194 205 216 217 196 183 194 179 193 225 219 234 221 218 263 268 242 271 227 269 279 275 280 318 308 285 295 294 295 310 326 320 319 320 319 317 316 319 322 323 329 329 328 327 330 331 331 330 330 328 329 332 335 337 337 335 334 333 331 329 330 332 332 329 327 326 326 325 325 325 323 319 315 312 310 306 300 291 281 276 273
187 185 193 192 204 213 230 221 202 203 185 188 187 203 208 218 226 202 203 245 245 258 263 255 276 275 309 305 282 284 282 294 302 326 325 314 320 320 315 313 311 316 327 333 330 329 336 334 333 331 328 328 329 331 333 335 337 338 338 337 337 336 335 334 333 331 329 328 329 329 329 328 327 324 320 317 314 313 311 307 304 298 293 289 280
185 186 197 190 184 192 208 197 187 191 188 198 209 197 208 212 241 220 199 199 247 263 289 289 266 292 301 288 286 288 283 283 316 333 321 315 321 324 328 316 317 333 334 333 332 336 331 336 331 325 330 331 333 334 335 336 337 337 338 340 341 341 340 338 337 336 335 334 332 331 328 325 320 318 318 317 317 315 312 309 307 305 302 297 293
190 183 194 189 205 210 184 179 180 185 200 208 230 210 206 205 225 233 163 220 252 257 272 290 292 296 295 286 292 285 281 277 331 318 306 301 311 324 313 325 328 339 337 335 344 337 337 336 338 339 339 337 332 333 333 335 336 335 337 341 343 345 344 343 341 340 339 336 333 330 326 324 323 324 321 319 316 314 312 310 309 307 306 304 302
190 188 195 194 196 199 195 188 194 197 195 205 219 205 212 204 221 241 264 264 209 251 238 263 279 279 274 282 275 282 273 3 339 336 300 320 325 339 342 330 342 344 347 341 341 343 341 339 336 336 330 331 329 327 330 333 334 335 340 342 345 346 347 346 345 343 340 339 337 334 333 333 331 329 327 325 324 321 319 317 315 314 310 307 306
196 188 197 198 202 216 197 193 186 181 199 218 218 219 206 190 179 157 215 286 304 123 100 138 311 296 157 253 293 245 304 16 13 329 335 9 343 354 2 344 352 347 353 337 338 343 340 339 335 332 331 328 331 333 328 329 332 340 341 344 345 347 348 346 344 344 343 340 338 336 335 333 330 327 325 323 320 319 316 313 312 310 310 312 311
194 193 197 195 204 216 218 213 188 192 199 212 215 216 193 167 151 188 198 233 262 154 161 161 298 253 315 327 253 288 353 51 41 5 357 5 10 8 11 354 338 341 343 335 332 338 338 335 333 330 330 333 332 335 341 344 345 343 342 345 344 345 346 346 345 343 341 339 337 335 333 330 327 325 323 321 318 317 314 313 311 310 308 307 306
191 192 192 199 206 207 201 202 199 199 193 205 213 216 212 213 189 209 230 204 244 225 201 186 249 203 260 295 345 353 340 6 325 357 323 14 4 18 356 344 338 340 345 335 339 336 342 332 327 328 333 335 335 337 337 339 343 336 339 340 341 342 344 345 344 342 340 338 335 333 330 329 327 326 323 320 318 316 315 314 314 312 310 309 306
188 189 197 202 206 207 207 199 206 196 201 208 206 232 224 217 210 215 185 211 204 241 246 195 177 170 334 24 303 10 326 115 327 310 153 323 100 353 0 346 332 336 340 346 338 329 333 330 326 334 335 335 335 338 339 342 337 338 341 342 342 341 345 344 341 339 337 335 335 334 332 329 327 325 323 321 319 317 316 314 311 309 307 308 306
186 185 189 200 201 203 206 214 200 187 195 216 221 225 216 212 202 197 181 185 191 169 53 108 186 211 151 213 291 320 211 319 336 288 297 346 4 171 346 351 338 328 333 338 330 320 324 328 329 335 340 338 339 337 334 339 348 351 351 353 343 348 346 342 340 339 338 337 336 334 331 330 327 325 323 322 320 319 317 315 314 313 311 309 307
206 194 182 189 212 212 212 208 197 198 204 217 218 198 200 202 202 191 192 197 179 162 143 54 18 44 33 26 321 278 324 350 1 315 325 355 330 343 345 19 354 343 342 341 340 326 331 326 339 335 340 341 340 340 346 355 357 1 5 353 351 349 345 344 343 341 340 339 337 335 333 331 330 328 326 324 322 320 319 317 314 312 312 310 308
198 196 203 205 222 217 219 215 196 198 197 202 197 198 197 197 171 186 192 171 163 168 166 136 99 48 40 49 62 77 109 82 314 318 321 329 342 348 340 353 1 345 334 336 334 327 328 346 341 337 333 342 346 353 0 5 9 10 360 355 351 349 348 348 346 343 341 340 338 337 335 333 331 329 327 325 323 320 318 316 314 313 312 310 308
198 193 193 206 214 217 207 200 193 191 185 196 194 172 144 113 145 167 145 156 175 174 150 145 153 134 57 80 79 84 96 150 186 180 225 289 312 344 340 357 336 325 315 322 324 320 322 334 342 338 336 344 5 11 10 14 16 5 360 355 352 350 349 348 346 343 341 340 338 336 334 332 330 329 327 325 323 321 319 318 316 314 313 312 310
196 202 202 207 208 210 198 195 192 181 173 168 159 158 153 140 137 136 147 143 140 126 129 144 148 149 149 119 119 92 66 87 115 71 130 221 280 290 306 332 305 266 265 287 298 302 313 321 329 329 332 349 14 9 14 16 7 1 357 354 350 348 348 347 344 342 341 339 337 336 333 331 330 329 328 326 324 322 321 319 317 316 315 313 312
202 214 218 208 201 196 192 179 169 152 152 148 144 141 138 136 138 137 144 128 119 130 132 136 141 139 131 133 138 120 101 130 103 64 244 218 247 279 306 316 325 310 316 296 303 308 315 326 330 331 334 11 9 18 17 9 5 1 352 348 348 348 347 345 342 340 339 337 336 334 332 331 330 329 327 326 324 323 322 320 319 318 316 315 313
195 210 215 193 189 180 175 165 148 144 141 147 150 141 139 137 134 131 130 125 126 124 119 130 128 117 112 112 133 165 168 170 171 171 168 192 266 268 275 272 286 300 272 320 316 307 306 315 316 309 354 10 22 18 12 8 5 355 345 346 346 346 344 341 339 338 336 334 333 331 330 329 328 327 326 325 324 322 321 321 320 319 317 316 314
194 189 194 184 168 167 164 153 150 153 153 153 149 138 129 128 134 131 126 120 120 119 128 126 115 102 95 111 126 138 131 144 153 160 168 187 206 271 296 306 284 246 296 308 291 283 301 303 297 325 33 26 32 16 8 6 355 351 344 344 342 342 341 338 336 334 332 331 329 328 327 326 325 324 322 322 320 320 320 319 319 318 317 316 315
192 181 174 170 154 143 146 146 145 147 139 136 132 126 129 131 131 122 128 135 136 130 122 118 123 129 122 93 106 118 124 125 135 133 126 143 199 288 275 269 266 291 286 309 318 307 315 303 314 31 56 43 15 7 7 360 347 344 344 336 338 339 339 337 335 333 332 330 328 326 325 323 322 321 321 320 320 320 319 317 316 316 315 315 313
181 191 171 167 161 156 146 140 140 136 129 119 110 103 126 134 136 129 121 116 110 109 115 108 101 110 123 125 123 122 118 110 109 125 136 146 148 230 297 260 228 269 244 286 266 336 327 321 332 73 77 30 7 6 3 346 343 346 345 338 337 340 338 335 332 330 328 326 323 322 321 321 321 321 319 319 318 317 317 317 317 315 314 313 313
183 179 149 155 150 140 140 140 137 128 122 116 117 122 124 121 118 116 104 110 112 114 116 122 126 132 132 131 127 116 112 117 128 127 137 134 143 166 339 334 322 201 322 305 335 251 292 298 300 57 72 7 15 5 350 342 336 342 340 335 331 330 328 328 327 328 326 322 319 317 318 318 319 319 319 319 320 319 318 317 315 314 314 313 313
160 149 153 147 151 140 137 134 132 125 115 125 130 132 136 130 123 117 110 115 119 120 125 127 128 130 127 125 116 112 113 119 122 123 127 130 136 141 136 101 10 331 336 187 32 300 113 311 342 80 8 18 15 352 329 322 328 334 328 326 323 321 322 324 328 328 326 321 319 318 318 319 321 321 320 320 319 319 319 318 316 314 313 313 311
153 157 145 142 142 143 137 136 130 121 119 121 127 130 132 128 127 124 123 124 119 125 129 126 127 127 121 118 110 117 121 119 112 117 124 129 135 136 113 121 106 118 335 308 27 296 294 139 323 311 27 12 339 331 324 324 330 330 324 320 321 319 324 328 328 328 324 321 319 318 318 320 321 321 320 320 320 320 319 319 317 316 314 314 312
154 154 144 141 134 136 130 127 123 98 109 124 122 126 126 122 124 122 129 128 119 114 116 123 127 124 119 114 119 109 117 111 110 121 124 130 131 122 113 101 137 114 200 298 299 222 274 230 212 309 328 337 331 325 324 321 326 326 322 321 322 325 325 325 327 328 325 322 319 318 318 319 320 320 320 320 320 318 318 317 317 316 315 313 313
143 145 147 143 142 139 132 128 117 105 123 122 126 128 129 124 125 127 134 133 116 110 119 125 130 130 124 111 108 100 109 106 108 109 112 119 115 122 111 109 88 108 156 219 301 261 117 308 287 332 318 325 325 316 318 320 325 325 322 324 325 325 322 323 326 327 325 320 318 317 318 319 319 320 320 319 318 317 316 316 316 315 314 314 312
155 152 146 146 144 137 135 135 116 122 128 129 133 133 128 127 132 132 137 127 114 116 122 116 128 127 115 104 97 100 102 97 88 78 77 67 76 93 92 92 93 84 139 216 245 266 248 287 300 317 332 325 326 327 324 318 315 324 329 322 324 324 325 325 325 324 320 317 316 316 317 319 320 321 320 319 317 316 315 315 315 314 315 314 311
151 151 146 147 148 139 139 142 138 137 135 137 140 135 123 128 129 129 129 126 117 118 118 115 112 109 106 105 101 93 103 102 100 97 94 94 97 97 98 96 84 71 104 257 270 291 289 174 308 321 328 329 321 333 325 326 326 328 325 321 322 324 322 321 320 316 315 316 315 317 318 320 322 321 320 318 317 316 315 315 315 314 313 310 309
159 153 148 143 145 139 139 142 140 136 133 139 145 134 129 128 125 135 132 128 120 122 125 116 114 105 109 107 106 109 105 107 111 114 118 116 112 97 88 78 66 52 20 335 289 278 298 316 323 321 320 338 314 330 334 327 326 328 324 321 317 316 314 316 318 316 314 316 318 319 321 321 322 322 320 320 319 317 316 315 314 313 311 310 310
140 144 146 146 148 140 135 137 136 139 142 143 145 136 137 138 138 139 140 135 134 134 128 125 121 117 106 108 119 126 130 121 123 118 123 110 95 85 77 76 64 49 29 16 343 303 307 307 315 325 335 330 322 320 326 319 312 317 318 320 321 317 317 317 316 316 316 316 318 319 320 322 324 324 321 321 320 317 315 314 313 313 312 310 310
139 127 134 138 138 136 135 137 143 144 146 144 140 139 141 141 137 137 138 128 122 121 123 125 124 119 123 123 131 142 147 126 125 115 104 100 89 85 84 75 62 52 16 17 345 312 306 311 314 333 323 324 317 317 315 309 315 318 317 313 316 318 321 324 323 318 317 316 315 315 318 320 324 323 320 320 319 316 315 315 315 314 312 310 308
137 136 131 139 134 138 144 148 148 148 146 143 131 130 128 133 132 132 127 118 113 114 114 115 119 122 126 122 136 148 157 132 126 115 106 100 98 93 83 70 53 33 17 360 343 324 311 304 306 315 317 308 307 310 334 336 329 326 322 319 319 317 317 318 321 320 319 318 317 316 319 322 325 323 319 320 319 317 317 317 316 315 312 309 308
140 137 141 147 146 144 143 144 144 142 140 139 135 131 133 133 127 116 112 112 114 112 111 110 117 119 123 128 134 144 154 138 125 122 117 106 100 86 75 58 44 26 15 355 344 331 316 302 306 314 329 332 325 323 339 338 329 326 326 324 321 322 321 322 324 317 320 313 314 316 323 323 324 322 320 322 321 317 316 317 317 315 312 308 306
146 142 141 133 136 138 140 141 144 141 136 133 131 131 133 133 127 122 119 118 115 108 105 111 112 114 120 126 130 134 128 123 125 121 113 103 89 77 68 50 33 20 4 360 346 338 327 319 313 308 313 322 324 317 329 330 323 322 327 327 322 324 322 326 328 330 332 321 311 311 318 319 316 318 319 321 317 313 315 316 314 310 306 303 303
138 142 145 144 141 140 141 142 140 139 134 129 129 132 132 133 128 121 126 126 119 112 110 108 112 117 119 117 117 117 114 114 112 106 104 95 91 75 63 45 29 15 6 352 348 339 333 327 321 320 323 322 320 312 314 328 330 327 336 326 317 321 323 325 329 333 328 325 325 323 327 324 321 323 322 320 317 315 315 313 312 308 303 305 311
135 141 139 139 138 133 131 137 137 137 137 140 144 143 136 127 126 128 132 128 126 124 119 115 115 115 113 109 107 105 99 95 92 90 87 90 89 75 50 37 21 12 358 351 343 338 332 327 319 319 318 321 322 324 327 336 338 327 324 325 314 315 317 316 320 333 327 322 321 316 323 334 326 328 328 328 320 320 315 313 313 311 313 318 320
139 139 138 141 140 142 140 138 136 135 132 132 138 135 136 137 134 130 126 128 129 128 127 125 118 114 112 113 107 104 98 88 84 84 84 77 79 73 64 31 13 3 351 342 338 333 326 323 320 320 318 317 323 325 321 320 322 323 325 326 322 322 322 317 313 328 333 326 321 321 324 336 327 323 329 330 322 320 325 323 318 322 323 325 325
145 146 143 141 142 144 144 141 134 127 129 132 140 140 137 136 132 134 134 132 129 128 131 131 131 131 127 121 119 110 99 84 79 79 81 84 81 64 50 32 15 358 345 338 329 325 319 313 312 312 308 308 313 320 318 319 322 325 323 320 318 321 323 324 321 320 339 334 323 319 319 335 329 323 322 323 324 326 325 326 325 328 329 330 330
150 146 147 146 142 140 133 127 121 128 127 142 141 139 138 137 137 128 130 131 133 131 132 131 134 138 139 137 132 126 106 98 102 91 78 248 148 48 36 24 11 0 346 333 322 319 318 309 308 305 306 305 313 319 320 325 325 323 324 323 320 319 316 314 313 316 323 324 317 317 314 329 324 320 321 326 327 329 329 327 328 332 334 334 333
143 150 147 140 136 131 134 131 128 131 130 142 139 140 139 138 135 130 127 130 130 132 133 134 138 142 146 146 146 136 123 127 146 203 207 236 240 5 38 21 5 359 345 335 326 310 304 300 298 298 297 308 310 314 321 321 322 319 322 320 319 315 313 308 310 315 316 317 314 316 317 322 323 320 321 326 330 333 330 328 331 337 338 336 337
150 141 138 138 137 139 141 136 129 129 130 142 141 140 139 137 137 133 128 129 125 126 130 133 135 142 152 158 152 140 137 156 182 221 241 217 109 40 22 8 3 356 349 332 319 309 301 295 295 293 300 304 302 310 319 326 323 318 318 316 318 317 315 309 308 307 306 312 314 318 311 316 322 320 323 326 329 326 326 327 335 341 338 339 342
155 153 150 146 147 142 140 136 129 130 134 143 141 142 142 139 137 133 126 122 119 119 120 125 134 141 149 145 133 128 148 168 208 263 61 44 47 43 16 10 4 354 336 322 311 309 304 299 296 295 300 308 312 316 319 318 312 309 310 309 313 308 300 300 300 301 308 315 319 320 310 319 326 323 327 328 323 324 331 329 339 342 340 341 346
130 131 133 138 143 140 138 138 132 133 142 146 146 146 144 141 139 131 131 127 124 126 126 135 143 144 146 138 124 145 165 178 245 311 30 39 61 73 18 12 1 338 315 299 301 312 317 316 315 315 316 314 315 314 313 313 313 312 312 312 306 304 309 309 307 312 313 324 324 322 315 323 333 328 321 323 320 322 331 336 339 342 342 343 346
148 152 151 148 148 145 145 144 139 138 144 151 151 149 146 144 139 134 132 126 129 135 140 145 150 151 143 139 151 156 186 225 258 341 15 40 51 33 17 20 346 310 302 278 305 343 336 330 326 321 316 315 314 312 314 317 318 322 318 313 313 318 313 311 310 317 319 330 327 333 333 323 338 330 317 322 324 319 330 338 338 344 347 346 349
156 155 146 139 144 150 149 149 151 145 149 154 155 153 151 151 149 145 146 138 136 140 141 150 153 145 144 157 162 181 209 243 278 20 12 43 28 29 27 358 330 333 336 12 349 338 339 332 326 321 317 315 314 315 315 317 320 326 320 313 313 314 310 310 311 317 315 323 332 354 339 332 332 327 316 314 312 316 325 339 339 350 351 346 348
148 144 146 142 138 137 143 142 147 147 148 155 158 157 156 157 155 152 150 144 142 149 151 151 151 149 158 157 180 192 201 247 5 17 23 29 38 39 34 344 333 350 2 355 352 345 338 333 326 320 309 306 306 309 309 313 318 321 318 311 312 313 311 310 313 316 316 327 343 2 344 336 335 328 328 325 325 324 357 342 340 359 355 350 346